Miscellaneous Local Product
Issued by NWS Hastings, NE

Home | Current Version | Previous Version | Text Only | Print | Product List | Glossary Off
Versions: 1 2 3 4 5 6 7 8 9 10 11 12 13 14 15 16 17 18 19 20 21 22 23 24 25 26 27 28 29 30 31 32 33 34 35 36 37 38 39 40 41 42 43 44 45 46 47 48 49 50

000
AXUS43 KGID 141802
MISGRI

GID CWA HOURLY WEATHER ROUNDUP
NATIONAL WEATHER SERVICE HASTINGS NE
100 PM CDT SUN SEP 14 2014

NOTE: "FAIR" INDICATES FEW OR NO CLOUDS BELOW 12,000 FEET WITH NO
SIGNIFICANT WEATHER AND/OR OBSTRUCTIONS TO VISIBILITY.

...SOUTH CENTRAL NEBRASKA...

CITY           SKY/WX    TMP DP  RH WIND       PRES   REMARKS
GRAND ISLAND   CLOUDY    66  51  58 SE8       30.15F
HASTINGS       MOSUNNY   67  51  56 SE9       30.14F
KEARNEY        MOSUNNY   66  54  63 SE10      30.14F
ORD            SUNNY     64  49  57 SE13G18   30.12F
YORK           SUNNY     66  50  55 S8        30.16F
AURORA         SUNNY     67  49  52 S7        30.15F
LEXINGTON      MOSUNNY   63  53  70 SE6       30.13S
HOLDREGE       MOSUNNY   67  51  57 SE15G21   30.13F
HEBRON         SUNNY     70  48  46 S10       30.15F

...NEBRASKA PANHANDLE...

CITY           SKY/WX    TMP DP  RH WIND       PRES   REMARKS
CHADRON        CLOUDY    54  42  64 NE7       30.11F
ALLIANCE       PTSUNNY   59  51  75 SE6       30.07F
SCOTTSBLUFF    CLOUDY    52  48  86 CALM      30.08F
SIDNEY         MOSUNNY   65  51  60 VRB6      30.07F

...WESTERN AND NORTH CENTRAL NEBRASKA...

CITY           SKY/WX    TMP DP  RH WIND       PRES   REMARKS
VALENTINE      SUNNY     62  41  46 E10G17    30.14R
AINSWORTH      SUNNY     59  43  54 E16       30.11F
ONEILL         SUNNY     60  46  60 E9G16     30.15F
BROKEN BOW     SUNNY     66  49  54 S16G24    30.11F
IMPERIAL       SUNNY     68  53  58 SE15      30.06F
NORTH PLATTE   SUNNY     65  51  60 E12       30.08F
MCCOOK         SUNNY     68  53  58 SE14      30.10F

...EASTERN NEBRASKA...

CITY           SKY/WX    TMP DP  RH WIND       PRES   REMARKS
NORFOLK        PTSUNNY   62  47  57 S5        30.16F
SO SIOUX CITY  PTSUNNY   64  49  57 SW8       30.19S
TEKAMAH        PTSUNNY   66  50  56 VRB5      30.19F
ALBION         MOSUNNY   62  49  61 SE7       30.16F
OMAHA EPPLEY   MOSUNNY   67  48  50 S7        30.18F
OFFUTT AFB     SUNNY     68  51  53 S7        30.18F
LINCOLN        SUNNY     69  49  48 SE7       30.18F
NEBRASKA CITY  MOSUNNY   68  40  36 S8        30.19F
BEATRICE       SUNNY     68  49  50 SE7       30.17F
FALLS CITY     SUNNY     71  50  47 VRB6      30.18F

...NORTHERN KANSAS...

CITY           SKY/WX    TMP DP  RH WIND       PRES   REMARKS
GOODLAND       SUNNY     68  56  65 SE15      30.08F
HILL CITY      MOSUNNY   70  54  56 SE13G21   30.09F
NORTON         CLEAR     68  48  49 SE15      30.10F
PHILLIPSBURG   SUNNY     70  52  52 E17       30.10F
SMITH CENTER   SUNNY     66  52  59 SE14G20   30.13F
BELOIT         SUNNY     70  54  56 SE12G17   30.13F
HAYS           MOSUNNY   70  55  60 S15       30.10F
RUSSELL        SUNNY     71  56  58 S12G20    30.10F
CONCORDIA      SUNNY     69  53  56 SE14      30.15F
SALINA         SUNNY     72  53  51 S14G22    30.14F
TOPEKA         SUNNY     71  52  50 S9        30.19F



USA.gov is the U.S. government's official web portal to all federal, state and local government web resources and services.